[[[{"header":{"parameterUnit":"kt","parameterCategory":2,"dx":1,"dy":1,"la1":30.253999710083008,"la2":30.299108505249023,"lo1":-89.0895004272461,"lo2":-89.04439544677734,"nx":28,"ny":28,"refTime":"2022-10-14T21:00:00:Z","depth":0,"parameterNumber":1,"parameterNumberName":"U-component_of_WINDS"},"data":[-5.9696,-5.9759,-5.9733,-5.9795,-5.9782,-5.982,-5.9826,-5.9831,-5.9828,-5.9873,-5.9895,-5.9876,-5.9863,-5.9885,-5.9908,-5.9899,-5.991,-5.9955,-5.9937,-5.976,-5.9734,-5.9709,-5.969,-5.9959,-5.9959,-6.0122,-6.0124,-6.0125,-5.9578,-5.9566,-5.959,-5.9594,-5.9615,-5.9558,-5.9557,-5.9579,-5.9615,-5.9612,-5.963,-5.9667,-5.9694,-5.9664,-5.9686,-5.9718,-5.9691,-5.9726,-5.9722,-5.9721,-5.9532,-5.9512,-5.9748,-5.9748,-5.9748,-5.9748,-5.9747,-5.9747,-5.9358,-5.9397,-5.9381,-5.9406,-5.9401,-5.9405,-5.9438,-5.941,-5.9434,-5.9449,-5.9411,-5.9452,-5.9443,-5.9452,-5.9449,-5.9481,-5.9437,-5.9466,-5.9473,-5.9481,-5.9494,-5.9265,-5.9484,-5.9483,-5.9482,-5.9481,-5.9481,0,-5.9186,-5.916,-5.9178,-5.919,-5.9206,-5.9212,-5.9213,-5.9233,-5.9165,-5.9188,-5.9217,-5.923,-5.9256,-5.9282,-5.9294,-5.9282,-5.9221,-5.9212,-5.9232,-5.9249,-5.9267,-5.9259,-5.8952,-5.9204,-5.9202,-5.92,-5.9199,-5.9198,-5.8961,-5.9008,-5.8976,-5.8993,-5.8984,-5.9013,-5.9025,-5.896,-5.8976,-5.8968,-5.9006,-5.903,-5.9044,-5.9098,-5.9063,-5.9083,-5.9052,-5.9153,-5.9054,-5.9073,-5.9054,-5.9051,-5.9056,-5.9171,-5.9175,-5.9177,-5.918,0,-5.8837,-5.8786,-5.8849,-5.8811,-5.8803,-5.8857,-5.8824,-5.886,-5.8827,-5.8872,-5.8879,-5.8827,-5.8857,-5.8805,-5.8828,-5.88,-5.8895,-5.8865,-5.8899,-5.8889,-5.8974,-5.8967,-5.9254,-5.9289,-5.9011,-5.9014,-5.9016,0,-5.8624,-5.8687,-5.8607,-5.8646,-5.8716,-5.8646,-5.8718,-5.8695,-5.8681,-5.8716,-5.8637,-5.8671,-5.8597,-5.8626,-5.8584,-5.8651,-5.8655,-5.8638,-5.8625,-5.8643,-5.8646,-5.8648,-5.8634,-5.8595,-5.8593,-5.8592,-5.8591,0,-5.8433,-5.8463,-5.8525,-5.8523,-5.8486,-5.8518,-5.8504,-5.8485,-5.8496,-5.8502,-5.8508,-5.852,-5.8527,-5.8539,-5.8484,-5.842,-5.8565,-5.8464,-5.8546,-5.8548,-5.8577,-5.8576,-5.8847,-5.8589,-5.8589,-5.8588,-5.8588,0,-5.825,-5.8253,-5.8351,-5.8318,-5.8328,-5.8369,-5.8374,-5.8396,-5.8382,-5.8357,-5.836,-5.8299,-5.835,-5.8256,-5.8327,-5.8259,-5.8272,-5.8258,-5.8263,-5.8262,-5.8156,-5.8315,-5.8579,-5.8605,-5.8267,-5.8264,-5.8262,0,-5.8047,-5.8129,-5.8066,-5.816,-5.819,-5.8096,-5.8141,-5.8129,-5.8098,-5.812,-5.8086,-5.8112,-5.8029,-5.8029,-5.8072,-5.8038,-5.8127,-5.8025,-5.8061,-5.8063,-5.8067,-5.831,-5.8361,-5.8528,-5.8227,-5.823,-5.8233,0,-5.7881,-5.7828,-5.7849,-5.7843,-5.7811,-5.7834,-5.7887,-5.7894,-5.7912,-5.7906,-5.7948,-5.7982,-5.7921,-5.7921,-5.787,-5.7917,-5.8065,-5.7844,-5.7843,-5.7886,-5.8203,-5.8253,-5.8281,-5.8022,-5.8026,-5.8029,-5.8205,0,-5.7617,-5.7648,-5.7701,-5.7686,-5.7695,-5.7748,-5.7684,-5.7702,-5.7651,-5.7614,-5.7675,-5.7647,-5.7654,-5.767,-5.7619,-5.7744,-5.7714,-5.7647,-5.7547,-5.7708,-5.7764,-5.7787,-5.7469,-5.7466,-5.7463,-5.746,0,0,-5.7435,-5.7476,-5.7401,-5.7444,-5.7446,-5.7342,-5.7405,-5.7396,-5.7377,-5.7382,-5.7327,-5.7369,-5.7347,-5.7427,-5.7472,-5.7474,-5.7491,-5.7435,-5.7632,-5.7651,-5.7669,-5.773,-5.7755,-5.7456,-5.7454,-5.7453,-5.7453,0,-5.7323,-5.73,-5.7361,-5.7347,-5.7321,-5.7277,-5.7293,-5.7249,-5.7227,-5.7282,-5.7195,-5.7223,-5.7256,-5.7245,-5.7244,-5.7426,-5.7357,-5.7433,-5.7552,-5.7606,-5.7629,-5.7649,-5.7715,-5.7739,-5.7446,-5.7446,-5.7446,0,-5.7147,-5.7113,-5.7134,-5.713,-5.7111,-5.7142,-5.7022,-5.7059,-5.7082,-5.6963,-5.7018,-5.6993,-5.6972,-5.7054,-5.7088,-5.7037,-5.7239,-5.7162,-5.7178,-5.7179,-5.7228,-5.7256,-5.7281,-5.6954,-5.6952,-5.6951,0,0,-5.7059,-5.7084,-5.7024,-5.71,-5.7095,-5.7028,-5.7036,-5.6983,-5.6964,-5.6957,-5.6921,-5.6907,-5.6926,-5.6939,-5.6953,-5.7051,-5.7041,-5.7104,-5.7127,-5.7146,-5.7158,-5.7213,-5.724,-5.6945,-5.6945,-5.6945,0,0,-5.7015,-5.6947,-5.6897,-5.6975,-5.6961,-5.6905,-5.6955,-5.6892,-5.6896,-5.6881,-5.6794,-5.6786,-5.6861,-5.6839,-5.6774,-5.6916,-5.6818,-5.6832,-5.6926,-5.6954,-5.6977,-5.698,-5.6644,0,0,0,0,0,-5.6863,-5.6956,-5.6911,-5.6913,-5.6904,-5.6931,-5.6929,-5.6858,-5.6791,-5.6833,-5.6794,-5.6718,-5.6786,-5.6727,-5.6732,-5.6804,-5.6875,-5.6887,-5.6899,-5.7043,-5.7073,-5.7099,0,0,0,0,0,0,-5.6864,-5.6867,-5.6908,-5.6858,-5.6855,-5.6927,-5.6798,-5.6781,-5.6785,-5.677,-5.6728,-5.6716,-5.6657,-5.6719,-5.6725,-5.6795,-5.6642,-5.688,-5.689,-5.69,-5.7053,-5.7078,-5.71,0,0,0,0,0,-5.6864,-5.6866,-5.687,-5.6856,-5.6854,-5.6781,-5.6794,-5.6779,-5.678,-5.6717,-5.6702,-5.6726,-5.6661,-5.666,-5.6722,-5.6794,-5.6637,-5.664,-5.6887,-5.6895,-5.6902,-5.7066,0,0,0,0,0,0,-5.6864,-5.6853,-5.6868,-5.6864,-5.6814,-5.6776,-5.6767,-5.6777,-5.6725,-5.6712,-5.671,-5.6699,-5.6665,-5.6664,-5.6664,-5.6798,-5.6634,-5.6636,-5.6638,-5.6893,-5.69,-5.6905,0,0,0,0,0,0,-5.6851,-5.6852,-5.6866,-5.6816,-5.6807,-5.6771,-5.6764,-5.6804,-5.6726,-5.6721,-5.671,-5.6706,-5.6664,-5.6667,-5.6667,-5.6733,-5.6631,-5.6633,-5.6635,-5.6636,-5.6898,-5.6903,0,0,0,0,0,0,-5.685,-5.685,-5.6817,-5.681,-5.6801,-5.6758,-5.6806,-5.6801,-5.6683,-5.6725,-5.667,-5.6665,-5.667,-5.6668,-5.6669,-5.6736,-5.6734,-5.6631,-5.6633,-5.6634,-5.6635,0,0,0,0,0,0,0,-5.6849,-5.6866,-5.6887,-5.6804,-5.6796,-5.6834,-5.6833,-5.6832,-5.6682,-5.6677,-5.6672,-5.6667,-5.6618,-5.662,-5.6623,-5.6739,0,0,-5.6631,-5.6632,0,0,0,0,0,0,0,0,-5.6864,-5.6865,-5.6887,-5.6886,-5.6886,-5.6834,-5.6833,-5.6832,-5.6681,-5.6677,-5.6673,-5.6669,-5.6619,-5.6621,-5.6623,0,0,0,0,0,0,0,0,0,0,0,0,0,0,0,-5.6887,-5.6886,0,-5.6834,-5.6833,-5.6833,-5.668,-5.6677,-5.6674,-5.6671,-5.6619,-5.6621,-5.6623,0,0,0,0,0,0,0,0,0,0,0,0,0,0,0,0,0,0,0,0,0,0,0,0,0,0,0,0,0,0,0,0,0,0,0,0,0,0,0,0,0,0,0,0,0,0,0,0,0,0,0,0,0,0,0,0,0,0,0,0,0,0,0,0,0,0,0,0,0]}],[{"header":{"parameterUnit":"kt","parameterCategory":2,"dx":1,"dy":1,"la1":30.253999710083008,"la2":30.299108505249023,"lo1":-89.0895004272461,"lo2":-89.04439544677734,"nx":28,"ny":28,"refTime":"2022-10-14T21:00:00:Z","depth":0,"parameterNumber":2,"parameterNumberName":"V-component_of_WINDS"},"data":[3.1382,3.1332,3.1372,3.1333,3.1361,3.1341,3.1345,3.1355,3.1373,3.135,3.1344,3.1376,3.1406,3.1406,3.1399,3.1413,3.1407,3.1362,3.1386,3.1555,3.158,3.1605,3.162,3.1361,3.136,3.1205,3.1203,3.1202,3.1506,3.1534,3.1525,3.1542,3.1535,3.1603,3.1621,3.1609,3.1587,3.1608,3.1603,3.1586,3.1576,3.1622,3.1617,3.1593,3.1623,3.1589,3.159,3.1594,3.1776,3.1792,3.1565,3.1565,3.1565,3.1565,3.1565,3.1565,3.1741,3.1709,3.1744,3.1734,3.1753,3.1764,3.174,3.1782,3.1771,3.1773,3.182,3.1795,3.1821,3.1833,3.1846,3.1826,3.187,3.1843,3.1837,3.1828,3.1815,3.2034,3.1827,3.1828,3.1829,3.1829,3.183,0,3.1925,3.1961,3.1955,3.196,3.1955,3.1961,3.1974,3.196,3.2045,3.2032,3.2016,3.2013,3.2006,3.1993,3.1997,3.2016,3.208,3.2091,3.2073,3.2049,3.2029,3.2039,3.2334,3.2096,3.2098,3.21,3.2101,3.2102,3.2165,3.2123,3.2178,3.2168,3.2185,3.2166,3.2163,3.2242,3.2234,3.2259,3.2225,3.2215,3.2211,3.2175,3.222,3.2213,3.2244,3.2149,3.2243,3.2224,3.2242,3.2243,3.2239,3.2128,3.2125,3.2122,3.212,0,3.2296,3.2361,3.2309,3.2366,3.2379,3.233,3.2377,3.2347,3.239,3.2354,3.235,3.2415,3.2397,3.2458,3.2447,3.2479,3.2396,3.2427,3.2389,3.2398,3.2318,3.2324,3.2051,3.202,3.2291,3.2288,3.2286,0,3.2526,3.2467,3.2567,3.2532,3.247,3.2551,3.2486,3.2516,3.2541,3.2513,3.2599,3.2571,3.2653,3.2633,3.268,3.2623,3.2621,3.2641,3.2654,3.2633,3.263,3.2627,3.2638,3.2685,3.2687,3.2688,3.2689,0,3.2723,3.2707,3.2653,3.2659,3.2712,3.2684,3.2704,3.2732,3.2727,3.273,3.2727,3.2723,3.272,3.2715,3.2776,3.2837,3.2708,3.2804,3.2728,3.2726,3.2694,3.2695,3.244,3.2691,3.2691,3.2692,3.2692,0,3.2918,3.2923,3.2833,3.2881,3.2873,3.2835,3.2839,3.2822,3.2844,3.2873,3.2875,3.2938,3.2894,3.2986,3.2926,3.2989,3.2981,3.2997,3.2993,3.299,3.3091,3.2937,3.269,3.2666,3.2991,3.2994,3.2996,0,3.3126,3.3053,3.3123,3.3035,3.301,3.3111,3.3071,3.3088,3.3123,3.3105,3.3143,3.312,3.3201,3.3202,3.3165,3.3201,3.3119,3.3214,3.3182,3.318,3.3173,3.2947,3.2894,3.2738,3.3029,3.3025,3.3023,0,3.3296,3.3363,3.3342,3.3353,3.3391,3.337,3.3323,3.332,3.3305,3.3314,3.3276,3.3245,3.3305,3.3305,3.3355,3.3313,3.3177,3.3382,3.3384,3.3342,3.305,3.3001,3.2974,3.3219,3.3216,3.3212,3.3049,0,3.3574,3.3546,3.3493,3.3513,3.3507,3.3454,3.3522,3.3506,3.3558,3.3595,3.3539,3.3567,3.3559,3.3545,3.3593,3.3476,3.3505,3.3568,3.366,3.3511,3.3459,3.3437,3.3733,3.3736,3.3739,3.3741,0,0,3.3757,3.3718,3.3795,3.3754,3.3753,3.3858,3.3796,3.3806,3.3823,3.382,3.3873,3.3831,3.385,3.3774,3.3733,3.3729,3.3714,3.3762,3.3582,3.3563,3.3547,3.349,3.3467,3.3746,3.3747,3.3747,3.3748,0,3.3873,3.3896,3.3836,3.3852,3.3877,3.3921,3.3906,3.3949,3.3969,3.3916,3.3999,3.3973,3.3936,3.3945,3.3945,3.3775,3.3837,3.3767,3.3654,3.3606,3.3584,3.3565,3.3504,3.3481,3.3755,3.3754,3.3754,0,3.4052,3.4086,3.4064,3.4068,3.4085,3.4055,3.417,3.4133,3.4111,3.4221,3.4166,3.4188,3.4205,3.4125,3.4091,3.4137,3.3945,3.4016,3.4002,3.3998,3.3954,3.3928,3.3905,3.4208,3.421,3.4211,0,0,3.4142,3.4116,3.4175,3.4098,3.4103,3.4167,3.4157,3.4207,3.4223,3.4228,3.4259,3.4269,3.425,3.4234,3.4218,3.412,3.4129,3.407,3.4048,3.403,3.4017,3.3968,3.3943,3.4216,3.4216,3.4216,0,0,3.4184,3.4251,3.4301,3.422,3.4234,3.4284,3.4233,3.4294,3.4287,3.43,3.4379,3.4385,3.4311,3.4329,3.4389,3.4251,3.4341,3.4328,3.4242,3.4216,3.4195,3.4191,3.4507,0,0,0,0,0,3.4338,3.4244,3.4288,3.4285,3.4288,3.426,3.4261,3.4326,3.439,3.4348,3.4384,3.4451,3.4378,3.4433,3.4427,3.4358,3.4281,3.4269,3.4259,3.4125,3.4097,3.4073,0,0,0,0,0,0,3.4337,3.4333,3.4291,3.4337,3.4338,3.4264,3.4386,3.4402,3.4396,3.441,3.4443,3.4452,3.4505,3.4441,3.4434,3.4367,3.4509,3.4276,3.4267,3.4258,3.4116,3.4093,3.4073,0,0,0,0,0,3.4337,3.4333,3.4322,3.4339,3.434,3.4405,3.4391,3.4404,3.4401,3.4455,3.4467,3.4451,3.4501,3.45,3.4437,3.4369,3.4515,3.4512,3.427,3.4262,3.4255,3.4104,0,0,0,0,0,0,3.4337,3.4345,3.4324,3.4327,3.4379,3.441,3.4417,3.4406,3.4447,3.4458,3.4467,3.4478,3.4498,3.4497,3.4495,3.4366,3.4519,3.4516,3.4514,3.4264,3.4258,3.4253,0,0,0,0,0,0,3.4347,3.4346,3.4325,3.4373,3.4382,3.4414,3.4421,3.4376,3.4446,3.4457,3.4468,3.4471,3.4499,3.4495,3.4494,3.4421,3.4522,3.4519,3.4517,3.4516,3.4259,3.4255,0,0,0,0,0,0,3.4348,3.4347,3.4373,3.4379,3.4387,3.4422,3.4376,3.4374,3.4491,3.4454,3.4503,3.4508,3.4494,3.4495,3.4492,3.4419,3.4421,3.4522,3.452,3.4519,3.4518,0,0,0,0,0,0,0,3.4348,3.4338,3.4308,3.4385,3.4392,3.4351,3.4352,3.4353,3.4492,3.4497,3.4501,3.4506,3.4538,3.4535,3.4532,3.4418,0,0,3.4522,3.4521,0,0,0,0,0,0,0,0,3.434,3.4338,3.4308,3.4309,3.4309,3.4352,3.4352,3.4353,3.4493,3.4497,3.45,3.4504,3.4537,3.4535,3.4532,0,0,0,0,0,0,0,0,0,0,0,0,0,0,0,3.4308,3.4309,0,3.4352,3.4352,3.4353,3.4493,3.4496,3.45,3.4503,3.4536,3.4534,3.4532,0,0,0,0,0,0,0,0,0,0,0,0,0,0,0,0,0,0,0,0,0,0,0,0,0,0,0,0,0,0,0,0,0,0,0,0,0,0,0,0,0,0,0,0,0,0,0,0,0,0,0,0,0,0,0,0,0,0,0,0,0,0,0,0,0,0,0,0,0]}]]]